owner,sensor,date,latitude,longitude,sea_surface_height_above_sea_level,qcFlag 
COMPS,ioos:station:USF.COMPS:ARP:1,2019-11-01T00:54:00,28.4330,-82.6670,0.175,11111222 
COMPS,ioos:station:USF.COMPS:ARP:1,2019-11-01T01:54:00,28.4330,-82.6670,0.126,11111222 
COMPS,ioos:station:USF.COMPS:ARP:1,2019-11-01T02:54:00,28.4330,-82.6670,0.177,11111222 
COMPS,ioos:station:USF.COMPS:ARP:1,2019-11-01T03:54:00,28.4330,-82.6670,0.28,11111222 
COMPS,ioos:station:USF.COMPS:ARP:1,2019-11-01T04:54:00,28.4330,-82.6670,0.459,11111222 
COMPS,ioos:station:USF.COMPS:ARP:1,2019-11-01T05:54:00,28.4330,-82.6670,0.745,11111222 
COMPS,ioos:station:USF.COMPS:ARP:1,2019-11-01T06:54:00,28.4330,-82.6670,0.909,11111222 
COMPS,ioos:station:USF.COMPS:ARP:1,2019-11-01T07:54:00,28.4330,-82.6670,0.796,11111222 
COMPS,ioos:station:USF.COMPS:ARP:1,2019-11-01T08:54:00,28.4330,-82.6670,0.555,11111222 
COMPS,ioos:station:USF.COMPS:ARP:1,2019-11-01T09:54:00,28.4330,-82.6670,0.328,11111222 
COMPS,ioos:station:USF.COMPS:ARP:1,2019-11-01T10:54:00,28.4330,-82.6670,0.144,11111222 
COMPS,ioos:station:USF.COMPS:ARP:1,2019-11-01T11:54:00,28.4330,-82.6670,-0.037,11114222 
COMPS,ioos:station:USF.COMPS:ARP:1,2019-11-01T12:54:00,28.4330,-82.6670,-0.191,11114222 
COMPS,ioos:station:USF.COMPS:ARP:1,2019-11-01T13:54:00,28.4330,-82.6670,-0.307,11114222 
COMPS,ioos:station:USF.COMPS:ARP:1,2019-11-01T14:54:00,28.4330,-82.6670,-0.401,11114222 
COMPS,ioos:station:USF.COMPS:ARP:1,2019-11-01T15:54:00,28.4330,-82.6670,-0.474,11114222 
COMPS,ioos:station:USF.COMPS:ARP:1,2019-11-01T16:54:00,28.4330,-82.6670,-0.484,11114222 
COMPS,ioos:station:USF.COMPS:ARP:1,2019-11-01T17:54:00,28.4330,-82.6670,-0.385,11114222 
COMPS,ioos:station:USF.COMPS:ARP:1,2019-11-01T18:54:00,28.4330,-82.6670,-0.18,11114222 
COMPS,ioos:station:USF.COMPS:ARP:1,2019-11-01T19:54:00,28.4330,-82.6670,0.053,11111222 
COMPS,ioos:station:USF.COMPS:ARP:1,2019-11-01T20:54:00,28.4330,-82.6670,0.222,11111222 
COMPS,ioos:station:USF.COMPS:ARP:1,2019-11-01T21:54:00,28.4330,-82.6670,0.292,11111222 
COMPS,ioos:station:USF.COMPS:ARP:1,2019-11-01T22:54:00,28.4330,-82.6670,0.233,11111222 
COMPS,ioos:station:USF.COMPS:ARP:1,2019-11-01T23:54:00,28.4330,-82.6670,0.152,11111222 
COMPS,ioos:station:USF.COMPS:ARP:1,2019-11-02T00:54:00,28.4330,-82.6670,0.055,11111222 
COMPS,ioos:station:USF.COMPS:ARP:1,2019-11-02T01:54:00,28.4330,-82.6670,-0.041,11114222 
COMPS,ioos:station:USF.COMPS:ARP:1,2019-11-02T02:54:00,28.4330,-82.6670,-0.116,11114222 
COMPS,ioos:station:USF.COMPS:ARP:1,2019-11-02T03:54:00,28.4330,-82.6670,-0.05,11114222 
COMPS,ioos:station:USF.COMPS:ARP:1,2019-11-02T04:54:00,28.4330,-82.6670,0.084,11111222 
COMPS,ioos:station:USF.COMPS:ARP:1,2019-11-02T05:54:00,28.4330,-82.6670,0.251,11111222 
COMPS,ioos:station:USF.COMPS:ARP:1,2019-11-02T06:54:00,28.4330,-82.6670,0.42,11111222 
COMPS,ioos:station:USF.COMPS:ARP:1,2019-11-02T07:54:00,28.4330,-82.6670,0.582,11111222 
COMPS,ioos:station:USF.COMPS:ARP:1,2019-11-02T08:54:00,28.4330,-82.6670,0.599,11111222 
COMPS,ioos:station:USF.COMPS:ARP:1,2019-11-02T09:54:00,28.4330,-82.6670,0.486,11111222 
COMPS,ioos:station:USF.COMPS:ARP:1,2019-11-02T10:54:00,28.4330,-82.6670,0.348,11111222 
COMPS,ioos:station:USF.COMPS:ARP:1,2019-11-02T11:54:00,28.4330,-82.6670,0.201,11111222 
COMPS,ioos:station:USF.COMPS:ARP:1,2019-11-02T12:54:00,28.4330,-82.6670,0.042,11111222 
COMPS,ioos:station:USF.COMPS:ARP:1,2019-11-02T13:54:00,28.4330,-82.6670,-0.103,11114222 
COMPS,ioos:station:USF.COMPS:ARP:1,2019-11-02T14:54:00,28.4330,-82.6670,-0.232,11114222 
COMPS,ioos:station:USF.COMPS:ARP:1,2019-11-02T15:54:00,28.4330,-82.6670,-0.325,11114222 
COMPS,ioos:station:USF.COMPS:ARP:1,2019-11-02T16:54:00,28.4330,-82.6670,-0.389,11114222 
COMPS,ioos:station:USF.COMPS:ARP:1,2019-11-02T17:54:00,28.4330,-82.6670,-0.336,11114222 
COMPS,ioos:station:USF.COMPS:ARP:1,2019-11-02T18:54:00,28.4330,-82.6670,-0.183,11114222 
COMPS,ioos:station:USF.COMPS:ARP:1,2019-11-02T19:54:00,28.4330,-82.6670,-0.031,11114222 
COMPS,ioos:station:USF.COMPS:ARP:1,2019-11-02T20:54:00,28.4330,-82.6670,0.098,11111222 
COMPS,ioos:station:USF.COMPS:ARP:1,2019-11-02T21:54:00,28.4330,-82.6670,0.142,11111222 
COMPS,ioos:station:USF.COMPS:ARP:1,2019-11-02T23:54:00,28.4330,-82.6670,0.106,11111222 
COMPS,ioos:station:USF.COMPS:ARP:1,2019-11-03T00:54:00,28.4330,-82.6670,0.041,11111222 
COMPS,ioos:station:USF.COMPS:ARP:1,2019-11-03T01:54:00,28.4330,-82.6670,-0.014,11114222 
COMPS,ioos:station:USF.COMPS:ARP:1,2019-11-03T02:54:00,28.4330,-82.6670,-0.088,11114222 
COMPS,ioos:station:USF.COMPS:ARP:1,2019-11-03T03:54:00,28.4330,-82.6670,-0.111,11114222 
COMPS,ioos:station:USF.COMPS:ARP:1,2019-11-03T04:54:00,28.4330,-82.6670,-0.05,11114222 
COMPS,ioos:station:USF.COMPS:ARP:1,2019-11-03T05:54:00,28.4330,-82.6670,0.045,11111222 
COMPS,ioos:station:USF.COMPS:ARP:1,2019-11-03T06:54:00,28.4330,-82.6670,0.132,11111222 
COMPS,ioos:station:USF.COMPS:ARP:1,2019-11-03T07:54:00,28.4330,-82.6670,0.206,11111222 
COMPS,ioos:station:USF.COMPS:ARP:1,2019-11-03T08:54:00,28.4330,-82.6670,0.176,11111222 
COMPS,ioos:station:USF.COMPS:ARP:1,2019-11-03T09:54:00,28.4330,-82.6670,0.152,11111222 
COMPS,ioos:station:USF.COMPS:ARP:1,2019-11-03T10:54:00,28.4330,-82.6670,0.115,11111222 
COMPS,ioos:station:USF.COMPS:ARP:1,2019-11-03T11:54:00,28.4330,-82.6670,0.02,11111222 
COMPS,ioos:station:USF.COMPS:ARP:1,2019-11-03T12:54:00,28.4330,-82.6670,-0.073,11114222 
COMPS,ioos:station:USF.COMPS:ARP:1,2019-11-03T13:54:00,28.4330,-82.6670,-0.163,11114222 
COMPS,ioos:station:USF.COMPS:ARP:1,2019-11-03T14:54:00,28.4330,-82.6670,-0.27,11114222 
COMPS,ioos:station:USF.COMPS:ARP:1,2019-11-03T15:54:00,28.4330,-82.6670,-0.358,11114222 
COMPS,ioos:station:USF.COMPS:ARP:1,2019-11-03T16:54:00,28.4330,-82.6670,-0.428,11114222 
COMPS,ioos:station:USF.COMPS:ARP:1,2019-11-03T17:54:00,28.4330,-82.6670,-0.462,11114222 
COMPS,ioos:station:USF.COMPS:ARP:1,2019-11-03T18:54:00,28.4330,-82.6670,-0.375,11114222 
COMPS,ioos:station:USF.COMPS:ARP:1,2019-11-03T19:54:00,28.4330,-82.6670,-0.255,11114222 
COMPS,ioos:station:USF.COMPS:ARP:1,2019-11-03T20:54:00,28.4330,-82.6670,-0.095,11114222 
COMPS,ioos:station:USF.COMPS:ARP:1,2019-11-03T21:54:00,28.4330,-82.6670,0.04,11111222 
COMPS,ioos:station:USF.COMPS:ARP:1,2019-11-03T22:48:00,28.4330,-82.6670,0.113,11111222 
COMPS,ioos:station:USF.COMPS:ARP:1,2019-11-03T23:48:00,28.4330,-82.6670,0.124,11111222 
COMPS,ioos:station:USF.COMPS:ARP:1,2019-11-04T00:54:00,28.4330,-82.6670,0.08,11111222 
COMPS,ioos:station:USF.COMPS:ARP:1,2019-11-04T01:54:00,28.4330,-82.6670,0.025,11111222 
COMPS,ioos:station:USF.COMPS:ARP:1,2019-11-04T02:54:00,28.4330,-82.6670,-0.022,11114222 
COMPS,ioos:station:USF.COMPS:ARP:1,2019-11-04T03:54:00,28.4330,-82.6670,-0.025,11114222 
COMPS,ioos:station:USF.COMPS:ARP:1,2019-11-04T04:54:00,28.4330,-82.6670,0.033,11111222 
COMPS,ioos:station:USF.COMPS:ARP:1,2019-11-04T14:54:00,28.4330,-82.6670,-0.051,11114222 
COMPS,ioos:station:USF.COMPS:ARP:1,2019-11-04T15:54:00,28.4330,-82.6670,-0.15,11114222 
COMPS,ioos:station:USF.COMPS:ARP:1,2019-11-04T16:54:00,28.4330,-82.6670,-0.205,11114222 
COMPS,ioos:station:USF.COMPS:ARP:1,2019-11-04T17:54:00,28.4330,-82.6670,-0.235,11114222 
COMPS,ioos:station:USF.COMPS:ARP:1,2019-11-04T18:54:00,28.4330,-82.6670,-0.218,11114222 
COMPS,ioos:station:USF.COMPS:ARP:1,2019-11-04T19:54:00,28.4330,-82.6670,-0.146,11114222 
COMPS,ioos:station:USF.COMPS:ARP:1,2019-11-04T20:54:00,28.4330,-82.6670,-0.045,11114222 
COMPS,ioos:station:USF.COMPS:ARP:1,2019-11-04T21:54:00,28.4330,-82.6670,0.068,11111222 
COMPS,ioos:station:USF.COMPS:ARP:1,2019-11-04T22:54:00,28.4330,-82.6670,0.175,11111222 
COMPS,ioos:station:USF.COMPS:ARP:1,2019-11-04T23:54:00,28.4330,-82.6670,0.255,11111222 
COMPS,ioos:station:USF.COMPS:ARP:1,2019-11-05T00:54:00,28.4330,-82.6670,0.279,11111222 
COMPS,ioos:station:USF.COMPS:ARP:1,2019-11-05T01:54:00,28.4330,-82.6670,0.239,11111222 
COMPS,ioos:station:USF.COMPS:ARP:1,2019-11-05T02:54:00,28.4330,-82.6670,0.213,11111222 
COMPS,ioos:station:USF.COMPS:ARP:1,2019-11-05T03:54:00,28.4330,-82.6670,0.155,11111222 
COMPS,ioos:station:USF.COMPS:ARP:1,2019-11-05T04:54:00,28.4330,-82.6670,0.12,11111222 
COMPS,ioos:station:USF.COMPS:ARP:1,2019-11-05T05:54:00,28.4330,-82.6670,0.077,11111222 
COMPS,ioos:station:USF.COMPS:ARP:1,2019-11-05T06:54:00,28.4330,-82.6670,0.173,11111222 
COMPS,ioos:station:USF.COMPS:ARP:1,2019-11-05T07:54:00,28.4330,-82.6670,0.24,11111222 
COMPS,ioos:station:USF.COMPS:ARP:1,2019-11-05T08:54:00,28.4330,-82.6670,0.307,11111222 
COMPS,ioos:station:USF.COMPS:ARP:1,2019-11-05T09:54:00,28.4330,-82.6670,0.41,11111222 
COMPS,ioos:station:USF.COMPS:ARP:1,2019-11-05T10:54:00,28.4330,-82.6670,0.491,11111222 
COMPS,ioos:station:USF.COMPS:ARP:1,2019-11-05T11:54:00,28.4330,-82.6670,0.504,11111222 
COMPS,ioos:station:USF.COMPS:ARP:1,2019-11-05T12:54:00,28.4330,-82.6670,0.478,11111222 
COMPS,ioos:station:USF.COMPS:ARP:1,2019-11-05T13:54:00,28.4330,-82.6670,0.391,11111222 
COMPS,ioos:station:USF.COMPS:ARP:1,2019-11-05T14:54:00,28.4330,-82.6670,0.281,11111222 
COMPS,ioos:station:USF.COMPS:ARP:1,2019-11-05T15:54:00,28.4330,-82.6670,0.157,11111222 
COMPS,ioos:station:USF.COMPS:ARP:1,2019-11-05T16:54:00,28.4330,-82.6670,0.036,11111222 
COMPS,ioos:station:USF.COMPS:ARP:1,2019-11-05T17:54:00,28.4330,-82.6670,-0.081,11114222 
COMPS,ioos:station:USF.COMPS:ARP:1,2019-11-05T18:54:00,28.4330,-82.6670,-0.161,11114222 
COMPS,ioos:station:USF.COMPS:ARP:1,2019-11-05T19:54:00,28.4330,-82.6670,-0.148,11114222 
COMPS,ioos:station:USF.COMPS:ARP:1,2019-11-05T20:54:00,28.4330,-82.6670,-0.05,11114222 
COMPS,ioos:station:USF.COMPS:ARP:1,2019-11-05T21:54:00,28.4330,-82.6670,0.007,11111222 
COMPS,ioos:station:USF.COMPS:ARP:1,2019-11-05T22:54:00,28.4330,-82.6670,0.114,11111222 
COMPS,ioos:station:USF.COMPS:ARP:1,2019-11-05T23:54:00,28.4330,-82.6670,0.243,11111222 
COMPS,ioos:station:USF.COMPS:ARP:1,2019-11-06T00:54:00,28.4330,-82.6670,0.36,11111222 
COMPS,ioos:station:USF.COMPS:ARP:1,2019-11-06T01:54:00,28.4330,-82.6670,0.4,11111222 
COMPS,ioos:station:USF.COMPS:ARP:1,2019-11-06T02:54:00,28.4330,-82.6670,0.355,11111222 
COMPS,ioos:station:USF.COMPS:ARP:1,2019-11-06T03:54:00,28.4330,-82.6670,0.274,11111222 
COMPS,ioos:station:USF.COMPS:ARP:1,2019-11-06T04:54:00,28.4330,-82.6670,0.194,11111222 
COMPS,ioos:station:USF.COMPS:ARP:1,2019-11-06T05:54:00,28.4330,-82.6670,0.105,11111222 
COMPS,ioos:station:USF.COMPS:ARP:1,2019-11-06T06:54:00,28.4330,-82.6670,-0.011,11114222 
COMPS,ioos:station:USF.COMPS:ARP:1,2019-11-06T07:54:00,28.4330,-82.6670,-0.078,11114222 
COMPS,ioos:station:USF.COMPS:ARP:1,2019-11-06T08:54:00,28.4330,-82.6670,-0.03,11114222 
COMPS,ioos:station:USF.COMPS:ARP:1,2019-11-06T09:54:00,28.4330,-82.6670,0.046,11111222 
COMPS,ioos:station:USF.COMPS:ARP:1,2019-11-06T10:54:00,28.4330,-82.6670,0.161,11111222 
COMPS,ioos:station:USF.COMPS:ARP:1,2019-11-06T11:54:00,28.4330,-82.6670,0.266,11111222 
COMPS,ioos:station:USF.COMPS:ARP:1,2019-11-06T12:54:00,28.4330,-82.6670,0.3,11111222 
COMPS,ioos:station:USF.COMPS:ARP:1,2019-11-06T13:54:00,28.4330,-82.6670,0.285,11111222 
COMPS,ioos:station:USF.COMPS:ARP:1,2019-11-06T14:54:00,28.4330,-82.6670,0.219,11111222 
COMPS,ioos:station:USF.COMPS:ARP:1,2019-11-06T15:54:00,28.4330,-82.6670,0.14,11111222 
COMPS,ioos:station:USF.COMPS:ARP:1,2019-11-06T16:54:00,28.4330,-82.6670,0.015,11111222 
COMPS,ioos:station:USF.COMPS:ARP:1,2019-11-06T17:54:00,28.4330,-82.6670,-0.108,11114222 
COMPS,ioos:station:USF.COMPS:ARP:1,2019-11-06T18:54:00,28.4330,-82.6670,-0.206,11114222 
COMPS,ioos:station:USF.COMPS:ARP:1,2019-11-06T19:48:00,28.4330,-82.6670,-0.289,11114222 
COMPS,ioos:station:USF.COMPS:ARP:1,2019-11-06T20:54:00,28.4330,-82.6670,-0.353,11114222 
COMPS,ioos:station:USF.COMPS:ARP:1,2019-11-06T21:54:00,28.4330,-82.6670,-0.289,11114222 
COMPS,ioos:station:USF.COMPS:ARP:1,2019-11-06T22:54:00,28.4330,-82.6670,-0.159,11114222 
COMPS,ioos:station:USF.COMPS:ARP:1,2019-11-06T23:54:00,28.4330,-82.6670,0.011,11111222 
COMPS,ioos:station:USF.COMPS:ARP:1,2019-11-07T00:54:00,28.4330,-82.6670,0.141,11111222 
COMPS,ioos:station:USF.COMPS:ARP:1,2019-11-07T01:54:00,28.4330,-82.6670,0.227,11111222 
COMPS,ioos:station:USF.COMPS:ARP:1,2019-11-07T02:54:00,28.4330,-82.6670,0.284,11111222 
COMPS,ioos:station:USF.COMPS:ARP:1,2019-11-07T03:54:00,28.4330,-82.6670,0.26,11111222 
COMPS,ioos:station:USF.COMPS:ARP:1,2019-11-07T04:54:00,28.4330,-82.6670,0.186,11111222 
COMPS,ioos:station:USF.COMPS:ARP:1,2019-11-07T05:54:00,28.4330,-82.6670,0.067,11111222 
COMPS,ioos:station:USF.COMPS:ARP:1,2019-11-07T06:54:00,28.4330,-82.6670,-0.042,11114222 
COMPS,ioos:station:USF.COMPS:ARP:1,2019-11-07T07:54:00,28.4330,-82.6670,-0.147,11114222 
COMPS,ioos:station:USF.COMPS:ARP:1,2019-11-07T08:54:00,28.4330,-82.6670,-0.207,11114222 
COMPS,ioos:station:USF.COMPS:ARP:1,2019-11-07T09:54:00,28.4330,-82.6670,-0.168,11114222 
COMPS,ioos:station:USF.COMPS:ARP:1,2019-11-07T10:54:00,28.4330,-82.6670,-0.045,11114222 
COMPS,ioos:station:USF.COMPS:ARP:1,2019-11-07T11:54:00,28.4330,-82.6670,0.126,11111222 
COMPS,ioos:station:USF.COMPS:ARP:1,2019-11-07T12:54:00,28.4330,-82.6670,0.287,11111222 
COMPS,ioos:station:USF.COMPS:ARP:1,2019-11-07T13:54:00,28.4330,-82.6670,0.413,11111222 
COMPS,ioos:station:USF.COMPS:ARP:1,2019-11-07T14:54:00,28.4330,-82.6670,0.443,11111222 
COMPS,ioos:station:USF.COMPS:ARP:1,2019-11-07T15:54:00,28.4330,-82.6670,0.376,11111222 
COMPS,ioos:station:USF.COMPS:ARP:1,2019-11-07T16:54:00,28.4330,-82.6670,0.266,11111222 
COMPS,ioos:station:USF.COMPS:ARP:1,2019-11-07T17:54:00,28.4330,-82.6670,0.139,11111222 
COMPS,ioos:station:USF.COMPS:ARP:1,2019-11-07T18:54:00,28.4330,-82.6670,0.024,11111222 
COMPS,ioos:station:USF.COMPS:ARP:1,2019-11-07T19:54:00,28.4330,-82.6670,-0.091,11114222 
COMPS,ioos:station:USF.COMPS:ARP:1,2019-11-07T20:54:00,28.4330,-82.6670,-0.188,11114222 
COMPS,ioos:station:USF.COMPS:ARP:1,2019-11-07T21:54:00,28.4330,-82.6670,-0.225,11114222 
COMPS,ioos:station:USF.COMPS:ARP:1,2019-11-07T22:54:00,28.4330,-82.6670,-0.118,11114222 
COMPS,ioos:station:USF.COMPS:ARP:1,2019-11-07T23:54:00,28.4330,-82.6670,0.031,11111222 
COMPS,ioos:station:USF.COMPS:ARP:1,2019-11-08T00:54:00,28.4330,-82.6670,0.195,11111222 
COMPS,ioos:station:USF.COMPS:ARP:1,2019-11-08T01:54:00,28.4330,-82.6670,0.378,11111222 
COMPS,ioos:station:USF.COMPS:ARP:1,2019-11-08T02:54:00,28.4330,-82.6670,0.494,11111222 
COMPS,ioos:station:USF.COMPS:ARP:1,2019-11-08T03:54:00,28.4330,-82.6670,0.526,11111222 
COMPS,ioos:station:USF.COMPS:ARP:1,2019-11-08T04:54:00,28.4330,-82.6670,0.45,11111222 
COMPS,ioos:station:USF.COMPS:ARP:1,2019-11-08T05:54:00,28.4330,-82.6670,0.324,11111222 
COMPS,ioos:station:USF.COMPS:ARP:1,2019-11-08T06:54:00,28.4330,-82.6670,0.184,11111222 
COMPS,ioos:station:USF.COMPS:ARP:1,2019-11-08T07:54:00,28.4330,-82.6670,0.033,11111222 
COMPS,ioos:station:USF.COMPS:ARP:1,2019-11-08T08:54:00,28.4330,-82.6670,-0.097,11114222 
COMPS,ioos:station:USF.COMPS:ARP:1,2019-11-08T09:54:00,28.4330,-82.6670,-0.199,11114222 
COMPS,ioos:station:USF.COMPS:ARP:1,2019-11-08T10:54:00,28.4330,-82.6670,-0.157,11114222 
COMPS,ioos:station:USF.COMPS:ARP:1,2019-11-08T11:54:00,28.4330,-82.6670,0.0,11111222 
COMPS,ioos:station:USF.COMPS:ARP:1,2019-11-08T12:54:00,28.4330,-82.6670,0.188,11111222 
COMPS,ioos:station:USF.COMPS:ARP:1,2019-11-08T13:54:00,28.4330,-82.6670,0.422,11111222 
COMPS,ioos:station:USF.COMPS:ARP:1,2019-11-08T14:54:00,28.4330,-82.6670,0.584,11111222 
COMPS,ioos:station:USF.COMPS:ARP:1,2019-11-08T15:54:00,28.4330,-82.6670,0.585,11111222 
COMPS,ioos:station:USF.COMPS:ARP:1,2019-11-08T16:48:00,28.4330,-82.6670,0.534,11111222 
COMPS,ioos:station:USF.COMPS:ARP:1,2019-11-08T17:54:00,28.4330,-82.6670,0.422,11111222 
COMPS,ioos:station:USF.COMPS:ARP:1,2019-11-08T18:54:00,28.4330,-82.6670,0.274,11111222 
COMPS,ioos:station:USF.COMPS:ARP:1,2019-11-08T19:54:00,28.4330,-82.6670,0.1,11111222 
COMPS,ioos:station:USF.COMPS:ARP:1,2019-11-08T20:54:00,28.4330,-82.6670,-0.093,11114222 
COMPS,ioos:station:USF.COMPS:ARP:1,2019-11-08T21:54:00,28.4330,-82.6670,-0.234,11114222 
COMPS,ioos:station:USF.COMPS:ARP:1,2019-11-08T22:54:00,28.4330,-82.6670,-0.273,11114222 
COMPS,ioos:station:USF.COMPS:ARP:1,2019-11-09T00:54:00,28.4330,-82.6670,0.015,11111222 
COMPS,ioos:station:USF.COMPS:ARP:1,2019-11-09T01:54:00,28.4330,-82.6670,0.203,11111222 
COMPS,ioos:station:USF.COMPS:ARP:1,2019-11-09T02:54:00,28.4330,-82.6670,0.342,11111222 
COMPS,ioos:station:USF.COMPS:ARP:1,2019-11-09T03:54:00,28.4330,-82.6670,0.421,11111222 
COMPS,ioos:station:USF.COMPS:ARP:1,2019-11-09T04:54:00,28.4330,-82.6670,0.385,11111222 
COMPS,ioos:station:USF.COMPS:ARP:1,2019-11-09T05:54:00,28.4330,-82.6670,0.228,11111222 
COMPS,ioos:station:USF.COMPS:ARP:1,2019-11-09T06:54:00,28.4330,-82.6670,0.08,11111222 
COMPS,ioos:station:USF.COMPS:ARP:1,2019-11-09T07:54:00,28.4330,-82.6670,-0.073,11114222 
COMPS,ioos:station:USF.COMPS:ARP:1,2019-11-09T08:54:00,28.4330,-82.6670,-0.22,11114222 
COMPS,ioos:station:USF.COMPS:ARP:1,2019-11-09T09:54:00,28.4330,-82.6670,-0.349,11114222 
COMPS,ioos:station:USF.COMPS:ARP:1,2019-11-09T10:54:00,28.4330,-82.6670,-0.438,11114222 
COMPS,ioos:station:USF.COMPS:ARP:1,2019-11-09T11:54:00,28.4330,-82.6670,-0.434,11114222 
COMPS,ioos:station:USF.COMPS:ARP:1,2019-11-09T12:54:00,28.4330,-82.6670,-0.231,11114222 
COMPS,ioos:station:USF.COMPS:ARP:1,2019-11-09T13:54:00,28.4330,-82.6670,0.096,11111222 
COMPS,ioos:station:USF.COMPS:ARP:1,2019-11-09T14:54:00,28.4330,-82.6670,0.281,11111222 
COMPS,ioos:station:USF.COMPS:ARP:1,2019-11-09T15:54:00,28.4330,-82.6670,0.32,11111222 
COMPS,ioos:station:USF.COMPS:ARP:1,2019-11-09T16:54:00,28.4330,-82.6670,0.326,11111222 
COMPS,ioos:station:USF.COMPS:ARP:1,2019-11-09T17:54:00,28.4330,-82.6670,0.227,11111222 
COMPS,ioos:station:USF.COMPS:ARP:1,2019-11-09T18:54:00,28.4330,-82.6670,0.119,11111222 
COMPS,ioos:station:USF.COMPS:ARP:1,2019-11-09T19:54:00,28.4330,-82.6670,0.026,11111222 
COMPS,ioos:station:USF.COMPS:ARP:1,2019-11-09T20:54:00,28.4330,-82.6670,-0.075,11114222 
COMPS,ioos:station:USF.COMPS:ARP:1,2019-11-09T21:54:00,28.4330,-82.6670,-0.173,11114222 
COMPS,ioos:station:USF.COMPS:ARP:1,2019-11-09T22:54:00,28.4330,-82.6670,-0.269,11114222 
COMPS,ioos:station:USF.COMPS:ARP:1,2019-11-09T23:54:00,28.4330,-82.6670,-0.249,11114222 
COMPS,ioos:station:USF.COMPS:ARP:1,2019-11-10T00:54:00,28.4330,-82.6670,-0.1,11114222 
COMPS,ioos:station:USF.COMPS:ARP:1,2019-11-10T01:54:00,28.4330,-82.6670,0.079,11111222 
COMPS,ioos:station:USF.COMPS:ARP:1,2019-11-10T02:54:00,28.4330,-82.6670,0.249,11111222 
COMPS,ioos:station:USF.COMPS:ARP:1,2019-11-10T03:54:00,28.4330,-82.6670,0.367,11111222 
COMPS,ioos:station:USF.COMPS:ARP:1,2019-11-10T04:54:00,28.4330,-82.6670,0.379,11111222 
COMPS,ioos:station:USF.COMPS:ARP:1,2019-11-10T05:54:00,28.4330,-82.6670,0.318,11111222 
COMPS,ioos:station:USF.COMPS:ARP:1,2019-11-10T06:54:00,28.4330,-82.6670,0.191,11111222 
COMPS,ioos:station:USF.COMPS:ARP:1,2019-11-10T07:54:00,28.4330,-82.6670,0.04,11111222 
COMPS,ioos:station:USF.COMPS:ARP:1,2019-11-10T08:54:00,28.4330,-82.6670,-0.108,11114222 
COMPS,ioos:station:USF.COMPS:ARP:1,2019-11-10T09:54:00,28.4330,-82.6670,-0.243,11114222 
COMPS,ioos:station:USF.COMPS:ARP:1,2019-11-10T10:54:00,28.4330,-82.6670,-0.357,11114222 
COMPS,ioos:station:USF.COMPS:ARP:1,2019-11-10T11:54:00,28.4330,-82.6670,-0.437,11114222 
COMPS,ioos:station:USF.COMPS:ARP:1,2019-11-10T12:54:00,28.4330,-82.6670,-0.39,11114222 
COMPS,ioos:station:USF.COMPS:ARP:1,2019-11-10T13:54:00,28.4330,-82.6670,-0.186,11114222 
COMPS,ioos:station:USF.COMPS:ARP:1,2019-11-10T14:54:00,28.4330,-82.6670,0.082,11111222 
COMPS,ioos:station:USF.COMPS:ARP:1,2019-11-10T15:54:00,28.4330,-82.6670,0.3,11111222 
COMPS,ioos:station:USF.COMPS:ARP:1,2019-11-10T16:54:00,28.4330,-82.6670,0.43,11111222 
COMPS,ioos:station:USF.COMPS:ARP:1,2019-11-10T17:54:00,28.4330,-82.6670,0.411,11111222 
COMPS,ioos:station:USF.COMPS:ARP:1,2019-11-10T18:54:00,28.4330,-82.6670,0.313,11111222 
COMPS,ioos:station:USF.COMPS:ARP:1,2019-11-10T19:54:00,28.4330,-82.6670,0.22,11111222 
COMPS,ioos:station:USF.COMPS:ARP:1,2019-11-10T20:54:00,28.4330,-82.6670,0.097,11111222 
COMPS,ioos:station:USF.COMPS:ARP:1,2019-11-10T21:54:00,28.4330,-82.6670,-0.03,11114222 
COMPS,ioos:station:USF.COMPS:ARP:1,2019-11-10T22:54:00,28.4330,-82.6670,-0.131,11114222 
COMPS,ioos:station:USF.COMPS:ARP:1,2019-11-10T23:54:00,28.4330,-82.6670,-0.128,11114222 
COMPS,ioos:station:USF.COMPS:ARP:1,2019-11-11T00:54:00,28.4330,-82.6670,0.026,11111222 
COMPS,ioos:station:USF.COMPS:ARP:1,2019-11-11T01:54:00,28.4330,-82.6670,0.198,11111222 
COMPS,ioos:station:USF.COMPS:ARP:1,2019-11-11T02:54:00,28.4330,-82.6670,0.389,11111222 
COMPS,ioos:station:USF.COMPS:ARP:1,2019-11-11T03:54:00,28.4330,-82.6670,0.521,11111222 
COMPS,ioos:station:USF.COMPS:ARP:1,2019-11-11T04:54:00,28.4330,-82.6670,0.537,11111222 
COMPS,ioos:station:USF.COMPS:ARP:1,2019-11-11T05:54:00,28.4330,-82.6670,0.464,11111222 
COMPS,ioos:station:USF.COMPS:ARP:1,2019-11-11T06:54:00,28.4330,-82.6670,0.346,11111222 
COMPS,ioos:station:USF.COMPS:ARP:1,2019-11-11T07:54:00,28.4330,-82.6670,0.184,11111222 
COMPS,ioos:station:USF.COMPS:ARP:1,2019-11-11T08:54:00,28.4330,-82.6670,0.01,11111222 
COMPS,ioos:station:USF.COMPS:ARP:1,2019-11-11T09:54:00,28.4330,-82.6670,-0.155,11114222 
COMPS,ioos:station:USF.COMPS:ARP:1,2019-11-11T10:54:00,28.4330,-82.6670,-0.29,11114222 
COMPS,ioos:station:USF.COMPS:ARP:1,2019-11-11T11:54:00,28.4330,-82.6670,-0.392,11114222 
COMPS,ioos:station:USF.COMPS:ARP:1,2019-11-11T12:54:00,28.4330,-82.6670,-0.401,11114222 
COMPS,ioos:station:USF.COMPS:ARP:1,2019-11-11T13:54:00,28.4330,-82.6670,-0.22,11114222 
COMPS,ioos:station:USF.COMPS:ARP:1,2019-11-11T14:54:00,28.4330,-82.6670,0.058,11111222 
COMPS,ioos:station:USF.COMPS:ARP:1,2019-11-11T15:54:00,28.4330,-82.6670,0.34,11111222 
COMPS,ioos:station:USF.COMPS:ARP:1,2019-11-11T16:54:00,28.4330,-82.6670,0.541,11111222 
COMPS,ioos:station:USF.COMPS:ARP:1,2019-11-11T17:54:00,28.4330,-82.6670,0.618,11111222 
COMPS,ioos:station:USF.COMPS:ARP:1,2019-11-11T18:54:00,28.4330,-82.6670,0.545,11111222 
COMPS,ioos:station:USF.COMPS:ARP:1,2019-11-11T19:54:00,28.4330,-82.6670,0.429,11111222 
COMPS,ioos:station:USF.COMPS:ARP:1,2019-11-11T20:54:00,28.4330,-82.6670,0.291,11111222 
COMPS,ioos:station:USF.COMPS:ARP:1,2019-11-11T21:54:00,28.4330,-82.6670,0.151,11111222 
COMPS,ioos:station:USF.COMPS:ARP:1,2019-11-11T22:54:00,28.4330,-82.6670,0.02,11111222 
COMPS,ioos:station:USF.COMPS:ARP:1,2019-11-11T23:54:00,28.4330,-82.6670,-0.026,11114222 
COMPS,ioos:station:USF.COMPS:ARP:1,2019-11-12T00:54:00,28.4330,-82.6670,0.146,11111222 
COMPS,ioos:station:USF.COMPS:ARP:1,2019-11-12T01:54:00,28.4330,-82.6670,0.312,11111222 
COMPS,ioos:station:USF.COMPS:ARP:1,2019-11-12T02:54:00,28.4330,-82.6670,0.555,11111222 
COMPS,ioos:station:USF.COMPS:ARP:1,2019-11-12T03:54:00,28.4330,-82.6670,0.767,11111222 
COMPS,ioos:station:USF.COMPS:ARP:1,2019-11-12T04:54:00,28.4330,-82.6670,0.868,11111222 
COMPS,ioos:station:USF.COMPS:ARP:1,2019-11-12T05:54:00,28.4330,-82.6670,0.79,11111222 
COMPS,ioos:station:USF.COMPS:ARP:1,2019-11-12T06:54:00,28.4330,-82.6670,0.631,11111222 
COMPS,ioos:station:USF.COMPS:ARP:1,2019-11-12T07:54:00,28.4330,-82.6670,0.456,11111222 
COMPS,ioos:station:USF.COMPS:ARP:1,2019-11-12T08:54:00,28.4330,-82.6670,0.259,11111222 
COMPS,ioos:station:USF.COMPS:ARP:1,2019-11-12T09:54:00,28.4330,-82.6670,0.055,11111222 
COMPS,ioos:station:USF.COMPS:ARP:1,2019-11-12T10:54:00,28.4330,-82.6670,-0.129,11114222 
COMPS,ioos:station:USF.COMPS:ARP:1,2019-11-12T11:54:00,28.4330,-82.6670,-0.272,11114222 
COMPS,ioos:station:USF.COMPS:ARP:1,2019-11-12T12:54:00,28.4330,-82.6670,-0.345,11114222 
COMPS,ioos:station:USF.COMPS:ARP:1,2019-11-12T13:54:00,28.4330,-82.6670,-0.174,11114222 
COMPS,ioos:station:USF.COMPS:ARP:1,2019-11-12T14:54:00,28.4330,-82.6670,0.097,11111222 
COMPS,ioos:station:USF.COMPS:ARP:1,2019-11-12T15:54:00,28.4330,-82.6670,0.359,11111222 
COMPS,ioos:station:USF.COMPS:ARP:1,2019-11-12T16:54:00,28.4330,-82.6670,0.588,11111222 
COMPS,ioos:station:USF.COMPS:ARP:1,2019-11-12T17:54:00,28.4330,-82.6670,0.706,11111222 